GFSSGP_250_rhum_246.txt.gz
RH
80 71 57 59 62 62 54 48 71 70 61 33 49 30 31 28 22 15 14 15 14 16 17 18 19 19 20 25 21 21 20 20 24 30 41 45 43 50 47 43 42 36 30 31 28 32 36 27 21
83 74 56 67 71 67 60 55 81 53 37 42 38 46 28 26 23 19 15 16 14 15 16 18 18 22 22 28 24 23 22 22 21 28 30 33 39 48 52 52 42 37 36 32 33 37 29 23 24
92 83 55 99 92 68 66 61 86 59 42 47 35 48 33 26 22 20 19 18 16 15 18 21 21 26 26 29 29 25 23 21 24 27 28 30 33 34 34 33 36 41 47 46 39 32 30 30 26
82 92 69 96 91 73 80 62 74 76 48 38 44 48 42 30 28 24 21 20 20 21 21 26 25 29 26 34 32 30 28 25 25 26 24 22 19 18 16 14 15 19 24 27 34 31 29 19 17
93 80 86 100 100 82 82 67 66 66 53 51 55 54 42 42 34 27 26 25 23 22 26 31 32 32 34 36 37 36 33 28 27 22 22 18 16 16 15 14 14 18 26 32 28 18 15 14 13
99 100 100 100 100 85 74 81 79 86 77 68 70 59 67 43 36 29 24 26 25 26 31 35 35 38 36 39 41 43 40 32 29 26 23 18 16 17 16 15 15 18 22 18 15 14 12 11 11
87 98 100 100 100 90 85 82 90 89 74 78 78 73 75 62 54 36 32 29 27 26 30 35 40 41 39 39 40 44 51 40 32 30 24 22 18 19 18 17 16 17 15 14 14 15 14 13 13
100 90 100 100 100 100 80 95 100 98 93 82 92 99 84 77 79 68 49 33 28 28 29 32 41 48 45 39 40 44 54 55 41 30 32 31 23 20 19 17 16 15 14 15 18 20 19 20 18
100 100 98 100 100 100 94 92 100 100 100 100 100 100 88 92 79 56 73 36 43 37 27 30 40 57 76 59 51 42 44 53 54 41 42 39 27 22 18 16 16 15 15 17 21 28 34 40 33
89 98 100 100 100 100 95 88 99 100 81 78 100 100 91 100 100 100 70 44 38 55 30 26 35 46 88 90 78 58 40 42 48 42 38 45 30 23 18 16 16 16 16 20 30 44 39 40 48
96 92 100 100 100 100 100 92 98 100 95 90 100 95 87 100 100 100 82 60 36 58 40 25 26 41 82 100 99 71 49 37 39 37 38 46 37 30 22 18 17 17 19 24 31 43 60 56 61
82 100 100 100 100 100 95 97 100 100 100 99 85 80 100 100 100 87 82 39 51 64 49 33 26 34 73 100 100 91 66 51 36 40 35 48 55 40 35 29 24 27 34 32 42 56 76 74 60
70 100 100 100 100 100 96 93 100 100 100 84 98 98 91 100 100 100 69 70 67 81 70 40 28 30 43 60 100 100 79 70 38 41 34 46 56 53 34 28 31 36 39 37 94 96 91 55 37
58 86 100 100 100 100 99 88 68 100 100 93 94 99 100 100 100 85 94 98 86 97 84 47 34 32 30 41 87 100 94 87 47 43 48 45 42 77 39 30 25 21 26 49 44 40 35 37 57
56 63 87 82 100 100 100 80 69 100 100 100 92 80 100 100 93 78 84 100 100 100 96 70 45 36 31 36 81 100 100 100 68 84 47 41 47 45 90 67 56 39 26 27 27 30 60 79 90
68 65 56 84 96 100 94 100 100 100 100 100 100 100 100 100 100 84 96 100 100 100 90 96 53 36 31 32 64 100 100 100 85 60 92 51 35 30 51 95 95 76 58 87 77 71 93 100 100
94 39 50 67 98 98 63 91 100 100 100 100 100 98 100 100 100 100 100 100 100 100 99 100 54 37 30 31 43 88 100 82 100 72 98 90 55 34 32 32 48 97 80 95 100 80 94 94 91
77 58 37 59 78 100 86 63 100 100 100 100 100 100 100 100 100 91 100 100 100 100 100 91 65 43 28 32 33 39 61 82 100 87 90 100 87 59 35 36 32 36 44 40 39 78 93 98 67
100 100 97 74 89 79 80 74 96 100 100 100 100 100 100 97 100 98 100 100 100 100 100 98 77 56 29 26 36 36 40 75 100 100 87 100 74 88 63 45 41 39 44 35 41 39 44 64 77
55 76 86 100 99 78 76 94 88 100 100 100 100 100 100 100 100 100 91 100 100 100 100 98 82 44 30 24 27 39 40 52 99 100 99 95 100 67 81 80 56 46 44 36 34 32 38 57 64
19 36 46 77 100 100 70 78 96 79 98 100 100 88 100 100 87 89 83 99 94 100 100 100 85 56 49 33 27 37 40 45 76 100 100 85 100 89 70 96 98 72 54 49 41 37 31 43 51
12 20 53 74 100 100 80 58 83 98 85 94 100 100 99 86 81 91 86 90 91 100 100 100 72 56 46 53 33 32 40 48 50 69 100 100 100 100 98 100 94 100 90 75 57 54 45 36 40
8 12 21 44 99 100 100 77 60 88 92 75 100 100 100 100 95 97 100 100 100 78 81 83 64 55 44 49 52 33 37 40 49 77 82 100 100 79 95 100 100 100 100 100 98 90 78 58 43
9 12 13 39 83 100 100 100 46 55 48 65 100 100 100 100 100 100 100 100 100 100 89 90 95 83 54 42 42 38 41 34 39 66 80 86 88 98 62 75 100 100 100 100 100 100 100 95 76
8 12 14 27 72 100 100 100 39 41 52 58 74 100 100 100 100 100 100 100 100 99 90 100 95 75 74 58 54 52 44 43 35 51 69 68 75 85 90 54 55 100 100 100 98 100 100 100 98
8 12 12 22 61 83 100 100 54 54 89 74 65 90 100 100 100 100 82 97 100 100 100 100 85 83 85 92 86 69 42 32 30 46 58 52 55 66 80 76 65 72 96 100 100 98 100 100 100
10 11 12 22 28 48 89 100 100 98 74 92 79 78 87 100 100 100 100 100 80 90 89 100 100 89 93 99 91 64 42 28 26 32 44 52 55 56 67 82 78 69 64 100 100 83 61 56 100
9 10 16 17 20 61 69 94 96 83 80 100 96 95 100 100 100 100 100 100 100 91 99 100 100 85 94 80 85 56 36 28 24 25 35 52 58 55 63 69 76 72 53 88 75 68 76 79 98
9 10 12 14 18 55 42 43 100 100 100 100 100 96 84 88 100 100 100 100 100 100 100 100 100 100 94 89 88 68 39 32 23 26 26 40 86 100 96 88 79 85 95 100 100 88 96 74 100
10 10 13 16 14 17 17 20 100 100 100 100 100 88 75 73 83 88 82 78 84 80 86 93 94 90 86 75 80 65 38 39 26 32 36 67 100 100 94 100 92 100 100 100 100 88 83 73 100

GFSSGP_250_rhum_249.txt.gz
RH
65 91 100 100 87 65 49 58 60 66 32 33 39 49 26 28 28 25 21 16 13 12 13 13 14 11 12 14 17 18 21 20 18 17 18 22 24 28 30 40 41 39 40 37 32 31 31 31 27
100 75 70 92 93 58 48 54 68 76 36 36 39 45 31 31 31 24 20 18 17 16 15 15 16 15 18 17 20 22 23 22 19 19 20 21 21 20 18 19 19 22 24 30 38 43 40 36 30
62 100 88 74 98 64 42 65 82 73 43 41 40 44 31 36 31 29 22 20 17 18 18 18 19 21 21 22 23 25 27 22 21 22 23 23 22 18 17 16 15 14 14 20 36 30 28 29 26
83 69 92 95 100 54 50 66 82 83 49 48 57 51 44 41 36 30 23 23 22 20 20 20 21 24 25 24 25 27 31 28 24 22 23 25 20 17 15 15 14 13 15 20 26 26 25 16 15
100 95 92 99 100 74 60 65 90 91 71 53 61 84 52 56 44 40 26 24 25 23 23 23 25 27 31 28 31 32 36 30 27 26 24 23 19 16 14 14 13 14 18 24 22 15 15 13 13
100 100 99 100 100 75 62 83 100 100 86 59 56 70 66 73 61 47 35 37 31 26 27 25 25 27 34 32 32 36 39 34 33 32 29 26 23 16 16 14 14 15 16 15 14 14 13 13 13
99 98 100 100 100 80 67 87 100 100 97 75 63 77 80 73 85 52 55 43 43 29 32 27 26 25 33 37 47 43 37 36 38 34 36 33 25 19 16 16 15 15 16 16 16 15 14 15 15
100 100 99 100 100 98 62 76 100 100 100 85 84 90 97 83 96 89 77 51 51 41 31 39 27 26 28 46 57 48 45 33 36 34 36 34 31 22 18 17 15 15 15 17 19 22 26 26 24
79 99 100 100 100 100 94 70 100 100 100 99 100 99 94 100 83 98 91 75 68 53 38 40 47 26 30 49 42 61 59 47 32 36 31 34 38 27 24 19 17 16 16 18 27 35 40 37 35
92 70 100 100 100 100 89 80 88 100 88 98 100 100 100 100 98 80 100 100 97 48 42 36 58 54 26 44 41 62 74 71 48 33 32 32 47 43 32 23 19 17 16 21 27 36 53 51 47
97 99 99 100 100 100 97 77 68 100 99 80 100 100 100 93 100 84 99 100 100 73 36 36 56 56 45 28 44 47 83 82 62 39 31 29 44 55 45 35 27 22 20 22 24 34 53 72 48
72 96 98 96 100 100 100 88 73 84 100 92 92 100 100 100 100 100 79 100 100 67 47 43 64 73 50 31 32 46 87 94 75 49 31 31 33 48 53 37 32 36 35 42 46 86 67 84 35
64 85 99 100 97 83 100 81 76 83 100 100 100 100 100 100 100 100 98 100 100 82 59 53 68 78 55 40 28 39 59 100 91 73 45 38 35 37 62 43 32 28 33 33 45 66 48 55 45
93 85 88 95 99 75 80 82 57 82 100 100 100 100 100 100 100 100 100 100 100 97 70 56 76 97 67 44 28 29 47 100 93 95 62 80 46 31 36 67 49 42 39 30 29 29 30 41 66
66 69 68 78 97 94 80 70 54 83 89 100 100 100 100 100 96 100 100 100 98 100 98 73 87 100 76 53 31 25 31 92 100 100 63 54 86 39 32 31 79 99 62 42 48 72 61 69 84
75 73 51 45 73 72 84 85 81 88 67 81 100 100 100 100 100 100 100 100 100 100 93 100 100 100 87 56 38 26 27 62 96 97 78 60 98 83 46 33 29 33 88 83 76 86 96 96 86
98 75 50 72 52 60 58 67 88 100 64 75 100 100 100 100 100 100 100 100 100 100 93 100 100 100 98 68 45 32 28 35 39 49 76 91 68 100 76 51 35 34 29 41 49 47 40 46 100
74 90 92 56 55 81 52 53 68 85 75 70 100 100 100 100 100 100 100 94 100 100 97 100 100 100 100 76 56 41 25 30 36 38 58 97 93 68 84 66 72 41 38 38 38 34 32 35 39
49 40 94 100 100 92 66 45 50 68 81 63 90 100 100 100 100 100 100 99 90 100 97 100 100 100 100 78 71 42 27 27 29 33 38 53 100 96 70 99 82 66 56 45 40 37 38 32 27
43 42 39 61 100 100 68 56 61 74 65 76 88 100 98 100 100 100 100 100 100 100 79 100 100 100 100 91 68 44 33 32 29 31 33 34 76 98 82 85 99 64 85 85 62 43 43 37 38
8 20 38 45 59 86 100 58 73 74 63 74 78 88 100 89 100 100 100 96 100 100 58 77 96 100 100 94 76 51 47 38 35 30 32 32 48 78 94 97 85 94 83 100 93 72 68 50 60
7 7 8 19 38 57 85 56 66 74 86 57 79 78 92 86 93 100 100 100 100 100 100 99 73 100 100 96 99 68 65 61 49 46 38 36 32 48 85 100 98 72 99 79 100 100 99 92 81
6 7 7 9 13 24 46 72 82 86 74 61 60 68 85 100 92 83 97 100 100 100 100 100 93 76 87 100 100 84 84 79 61 53 45 43 42 32 61 78 87 88 65 49 86 100 100 100 100
7 7 7 8 10 12 21 42 65 75 56 53 43 93 93 100 100 100 95 86 75 71 84 100 100 100 100 98 98 91 83 78 66 49 53 54 40 36 47 64 64 76 78 62 58 100 100 81 86
8 8 8 8 8 9 10 27 28 70 73 82 57 62 100 100 100 100 100 100 85 62 77 87 100 100 100 100 84 80 100 90 73 56 60 51 41 36 51 64 68 69 77 92 76 63 91 100 99
10 10 9 8 8 8 8 12 8 42 85 100 94 55 70 100 100 100 100 100 100 97 85 91 96 100 100 100 91 79 100 92 78 67 63 63 38 34 44 64 59 54 54 56 85 84 76 90 100
9 10 10 10 10 10 8 10 11 22 95 100 100 66 58 97 100 100 100 100 100 100 100 100 100 100 100 100 100 98 97 86 99 85 64 70 41 31 32 44 52 48 48 57 68 91 85 61 50
11 13 13 11 10 10 9 9 8 14 36 92 100 97 71 91 100 100 100 100 100 100 100 100 100 100 100 100 100 100 100 96 100 87 69 54 54 36 36 36 36 55 73 55 63 92 100 74 60
12 12 16 12 10 11 10 8 10 17 29 100 100 100 95 90 100 100 100 100 100 100 100 100 100 100 100 100 100 100 100 100 100 100 67 55 56 44 40 35 59 64 100 100 84 82 96 78 62
13 14 14 13 11 14 11 10 10 12 33 78 100 100 100 91 83 100 100 100 100 100 100 100 100 100 100 100 100 100 100 100 100 100 98 56 54 53 38 35 78 70 74 100 100 100 96 51 74

GFSSGP_250_rhum_252.txt.gz
RH
88 65 64 100 100 100 76 66 66 57 55 40 53 42 37 34 30 21 17 20 19 20 18 16 16 14 14 14 15 14 14 17 19 18 18 19 17 16 17 16 15 15 15 16 17 26 32 37 41
99 98 82 71 92 100 73 47 85 63 59 46 49 40 40 39 31 30 23 22 21 19 19 18 16 15 14 16 17 18 18 19 19 18 18 18 18 16 15 14 14 13 13 14 16 26 45 40 27
95 95 89 91 98 99 59 52 67 71 59 50 51 47 46 49 40 46 27 23 24 22 19 19 19 17 17 17 17 20 20 21 21 20 18 19 19 16 14 14 14 14 12 12 13 17 22 22 17
100 99 90 68 95 98 59 70 77 87 63 54 58 53 48 53 49 53 34 26 28 25 21 19 19 18 17 18 20 22 23 23 22 22 22 22 22 18 13 12 11 12 13 14 16 20 17 12 11
91 95 92 99 100 100 60 75 68 88 62 74 76 60 49 55 51 59 62 34 36 29 23 22 22 21 20 20 23 25 25 25 25 23 22 22 25 18 13 12 12 12 13 14 13 12 12 11 11
75 97 98 98 97 100 68 80 64 70 72 83 83 66 59 59 56 65 72 57 41 36 34 27 24 25 22 21 26 28 32 27 24 24 22 22 28 17 13 13 13 13 14 14 13 13 13 12 12
100 86 96 100 99 89 61 78 88 76 71 85 100 86 76 72 60 70 75 67 63 49 43 33 30 30 37 28 28 30 40 41 27 26 25 23 27 18 14 15 15 14 14 15 15 16 16 18 15
78 100 100 100 100 100 97 49 61 60 67 68 100 100 81 75 72 68 83 84 82 64 52 42 33 37 39 52 30 29 40 46 43 29 29 26 25 24 18 18 18 17 15 15 20 23 27 29 24
99 62 90 100 100 100 100 95 68 76 74 67 79 100 95 87 79 74 82 86 86 84 97 64 36 36 41 48 51 27 32 47 54 48 37 29 25 31 28 23 22 19 17 16 19 27 32 31 33
100 97 98 100 100 100 100 87 85 76 88 82 82 99 100 100 91 85 100 100 95 85 93 94 49 39 33 56 57 44 28 52 56 61 44 29 28 33 42 30 28 25 24 20 22 26 36 53 26
100 100 100 100 100 100 100 85 64 75 100 96 100 100 100 100 97 97 100 100 100 89 84 100 64 50 40 58 63 54 26 42 62 68 44 41 28 29 36 45 28 30 34 35 34 45 69 67 44
85 99 100 100 100 96 100 90 64 63 90 84 95 100 100 100 100 96 99 96 97 100 100 100 88 61 54 44 73 64 31 37 52 81 74 54 36 31 30 43 43 28 27 34 34 45 71 57 46
71 91 96 100 100 93 82 91 68 47 85 81 98 99 100 100 100 100 92 97 100 99 100 100 95 76 58 49 73 67 36 26 44 80 88 76 58 40 29 35 47 46 43 40 30 28 40 35 41
58 65 86 100 100 99 100 100 79 77 69 68 69 91 100 100 100 100 98 100 100 99 100 100 100 82 64 57 76 69 50 25 30 62 92 81 59 54 40 33 32 44 94 68 44 40 55 79 80
42 48 70 84 100 90 100 100 92 100 69 50 71 75 87 100 100 100 100 100 100 100 100 100 100 97 72 60 81 81 60 35 24 55 46 54 69 55 65 48 36 32 30 70 87 58 67 89 100
46 42 38 66 68 99 100 96 100 100 64 58 59 75 79 100 100 100 100 100 99 100 100 100 100 100 89 50 92 89 72 46 29 25 26 29 54 55 85 76 46 36 33 31 41 81 42 44 39
58 40 35 43 52 65 89 90 100 100 70 78 62 74 80 94 100 100 100 97 100 100 100 100 100 100 100 82 94 100 82 57 45 28 24 27 31 42 52 72 77 56 40 32 30 30 36 37 32
100 92 79 66 47 52 47 59 100 100 78 80 82 66 86 87 100 100 100 94 100 100 100 100 100 100 100 88 100 100 99 67 54 32 27 24 28 29 47 69 55 63 64 40 36 37 36 37 36
71 83 100 95 100 97 40 38 54 100 80 64 75 75 77 96 100 100 100 92 88 84 100 100 100 100 100 100 100 100 100 79 56 42 38 29 27 27 31 58 69 51 66 65 58 63 41 39 39
36 55 64 97 100 100 78 32 38 79 59 54 51 60 80 91 100 95 100 100 94 87 76 85 96 100 100 100 100 100 100 86 58 47 45 30 36 27 28 36 37 53 53 60 53 97 83 58 54
11 11 32 59 98 100 100 68 45 80 49 48 42 44 51 82 100 100 100 100 100 100 92 96 95 100 100 100 100 100 100 99 74 58 48 41 38 42 33 40 35 40 55 47 48 47 78 97 100
8 10 12 35 70 76 92 92 76 78 57 67 58 38 40 51 79 96 96 100 100 100 98 91 92 100 100 99 100 100 100 100 93 82 58 49 40 44 41 41 36 33 40 53 60 50 48 53 68
7 8 8 10 17 38 62 64 94 100 100 77 65 43 43 52 56 86 78 100 100 100 100 98 93 95 100 100 79 100 100 100 100 94 81 59 42 49 48 43 43 30 35 54 60 71 72 51 61
9 7 8 8 10 11 17 35 46 74 98 88 80 58 56 53 54 64 75 94 100 100 100 100 91 94 74 91 70 75 100 100 100 100 94 70 53 62 59 49 49 36 30 39 48 52 72 78 69
8 9 8 8 9 8 9 12 9 42 62 75 96 84 71 63 59 62 80 88 100 100 100 100 98 83 100 78 60 68 100 100 100 95 88 87 73 76 69 68 57 44 34 28 32 37 49 56 54
7 8 8 7 8 7 9 9 6 12 43 60 67 76 90 67 64 76 65 87 100 100 100 100 100 100 99 100 98 66 76 100 100 100 100 100 91 78 84 83 66 45 43 32 27 24 35 47 59
7 8 9 8 8 8 10 9 8 9 12 30 51 71 79 67 54 81 78 84 100 100 100 100 100 100 100 100 93 67 58 99 100 100 100 99 97 90 98 97 78 52 44 40 29 26 35 42 50
8 8 9 9 11 7 9 8 6 10 9 13 21 45 62 79 81 73 93 94 100 100 100 100 100 100 100 100 92 74 75 74 100 100 100 100 100 99 100 99 83 62 53 45 37 40 62 56 59
8 8 9 9 9 8 10 9 8 9 9 10 13 26 87 100 100 100 99 98 100 100 100 100 100 100 100 100 100 100 98 93 100 100 100 100 100 100 98 97 88 69 54 48 40 51 100 90 78
8 8 8 9 9 10 10 11 8 8 10 10 12 14 35 100 100 100 100 100 90 94 100 100 100 100 100 100 100 100 100 100 92 98 100 100 100 98 89 95 86 71 50 45 40 37 83 100 71

GFSSGP_250_rhum_258.txt.gz
RH
90 80 74 73 72 79 75 49 57 70 71 53 57 62 56 42 44 34 29 28 25 22 20 18 17 16 15 14 12 12 12 11 12 12 12 13 13 14 15 13 11 10 10 11 12 11 12 12 15
100 100 86 78 80 91 85 62 57 82 91 52 55 66 61 48 37 42 29 33 30 23 22 20 18 18 17 16 16 15 14 14 14 13 14 14 13 14 14 12 11 10 9 10 10 10 12 13 15
99 100 100 99 99 99 88 61 51 100 100 74 61 63 58 69 40 42 30 35 38 38 29 23 22 20 19 21 19 18 17 16 14 14 15 16 16 15 14 11 11 9 9 9 10 11 11 10 9
65 86 100 100 100 100 97 71 54 92 100 95 60 68 52 70 47 47 35 36 37 45 43 42 27 27 24 23 33 28 22 20 17 16 18 18 18 16 14 12 10 10 9 9 10 10 10 11 10
100 79 77 100 100 100 100 88 70 73 100 89 55 79 68 58 63 52 49 44 46 49 50 54 46 36 28 25 30 35 31 22 22 22 21 19 18 17 16 14 12 11 10 10 10 11 12 12 11
100 95 92 100 100 100 100 100 92 94 91 82 66 76 76 65 69 59 53 46 42 48 46 57 59 53 40 28 26 29 42 31 24 26 28 21 18 18 18 15 14 14 12 13 13 13 13 14 14
74 100 88 93 100 100 100 100 95 91 100 99 84 72 78 78 62 68 65 55 47 40 52 58 68 71 52 45 39 30 32 38 21 26 33 24 20 20 19 17 16 17 16 18 16 16 20 21 19
100 75 100 100 100 100 100 100 100 88 96 100 100 60 73 88 94 67 80 73 60 46 60 49 75 78 73 62 54 39 31 45 24 24 33 35 24 23 21 21 19 19 20 22 24 34 30 31 30
86 100 100 100 100 100 100 78 86 100 95 89 100 73 54 83 98 100 90 96 73 66 64 62 60 69 98 63 68 48 35 37 40 21 27 34 28 28 25 25 28 23 23 24 26 26 48 45 31
90 88 96 100 100 100 100 100 66 96 100 82 86 99 67 61 88 100 92 100 100 76 71 76 57 55 56 51 63 67 46 35 52 21 22 34 31 29 32 24 31 35 30 25 28 28 27 32 28
63 73 100 80 100 100 100 100 94 76 91 96 80 91 89 65 57 99 84 100 100 99 74 67 84 76 58 44 64 69 57 44 41 41 27 24 25 28 38 35 26 29 43 49 37 27 28 37 39
51 66 82 98 85 90 93 100 100 81 95 100 88 73 86 70 55 74 81 98 100 100 100 85 89 94 78 52 58 72 67 56 46 50 46 29 21 23 27 44 34 26 32 49 72 51 42 44 58
53 50 43 54 75 87 74 87 100 100 100 100 92 100 99 82 62 62 69 82 100 100 100 100 88 100 85 70 54 88 82 63 61 50 52 46 27 22 21 30 40 41 31 27 29 46 71 54 49
72 56 37 47 42 54 66 91 97 100 92 100 98 74 100 100 100 93 80 72 97 100 100 100 100 100 95 98 79 67 94 72 67 58 58 56 37 28 22 22 34 47 44 35 31 28 27 52 59
100 71 53 48 41 36 40 57 76 100 78 79 100 99 77 95 98 100 100 81 73 100 100 100 100 100 100 97 100 61 100 95 69 64 59 59 52 40 24 22 25 41 51 53 43 40 28 35 37
95 100 90 98 70 54 30 27 62 100 76 59 62 100 96 94 89 93 89 91 67 91 100 100 100 96 87 94 93 90 99 100 97 63 64 67 69 56 40 30 25 26 26 35 45 46 45 31 32
12 33 100 100 97 74 52 31 35 68 40 49 54 67 100 100 95 95 82 68 68 77 100 100 100 100 86 86 90 93 94 100 100 72 66 72 82 67 60 43 34 27 26 28 28 45 60 55 43
11 8 10 60 100 98 50 44 49 59 42 38 35 54 56 99 100 100 99 78 61 47 80 100 100 100 100 100 100 80 94 100 94 99 62 82 87 81 70 56 44 32 26 30 24 31 45 64 52
7 8 8 9 13 85 96 48 57 65 54 54 46 33 55 51 100 100 100 100 74 56 44 72 93 100 100 100 100 100 87 89 86 99 88 65 80 85 65 57 53 39 32 28 32 24 29 44 55
9 7 8 10 11 8 36 70 77 62 66 63 65 52 37 58 74 100 100 100 99 70 52 50 64 94 100 94 99 93 100 98 91 96 100 93 63 83 61 59 61 46 40 33 31 31 25 27 40
11 10 9 8 9 8 8 14 84 70 50 69 64 84 65 47 63 84 100 100 100 94 65 51 58 69 98 97 80 70 100 100 100 95 58 91 64 96 83 73 74 68 53 45 37 31 27 25 25
10 10 11 10 8 7 7 7 21 55 45 63 68 65 99 69 63 76 78 100 100 100 92 65 54 61 76 100 86 73 92 97 98 72 63 83 100 91 96 100 87 83 70 57 50 39 32 32 32
8 8 9 10 10 7 6 6 10 26 34 55 66 64 85 85 65 75 85 62 90 100 100 96 72 63 60 93 100 86 71 66 92 100 100 83 74 70 80 93 100 94 82 67 61 50 43 36 34
6 7 7 7 8 7 9 5 9 9 26 80 88 66 95 83 67 55 93 98 76 100 100 100 90 88 84 91 100 100 100 87 69 84 87 76 66 77 90 94 87 88 98 80 64 66 52 42 38
6 6 6 6 6 6 9 7 7 10 14 90 100 99 87 100 80 70 69 100 100 100 100 100 100 100 100 100 100 100 100 100 100 96 80 66 69 86 84 60 66 92 100 87 73 82 78 58 39
6 6 6 5 5 6 6 8 8 9 12 58 100 100 100 98 100 72 92 78 100 100 100 100 100 100 100 100 100 100 100 100 100 100 93 84 76 81 82 99 84 81 87 100 94 96 93 92 60
6 6 6 5 5 5 7 7 11 8 10 10 88 100 100 80 100 96 60 76 88 100 100 100 100 100 95 100 100 97 99 100 100 100 100 88 77 74 73 83 76 62 71 98 100 100 100 100 87
6 6 6 5 6 6 5 7 8 9 8 10 21 100 100 86 88 100 79 56 61 82 100 100 100 100 100 96 100 96 83 100 100 99 100 100 89 68 62 65 72 91 93 98 100 100 100 100 98
7 5 6 6 6 6 6 6 6 9 7 9 12 82 100 98 90 100 100 66 52 70 76 100 100 100 100 100 98 99 69 64 94 100 100 100 98 72 67 66 65 67 77 90 100 100 100 100 100
8 8 6 6 6 6 6 7 6 8 8 8 10 18 100 100 100 100 95 100 71 61 80 81 100 100 100 100 100 100 91 68 72 88 100 100 96 95 78 66 62 66 75 84 68 94 100 100 100

GFSSGP_250_rhum_264.txt.gz
RH
72 100 100 99 88 72 61 55 52 59 67 88 78 58 67 55 62 48 30 25 22 19 18 18 17 17 14 14 14 13 12 11 11 12 12 11 11 10 11 10 10 10 9 8 8 8 8 8 9
100 85 100 100 100 92 78 57 37 50 72 81 89 64 65 66 68 64 39 28 26 22 21 21 20 17 15 18 16 15 15 13 13 13 12 11 11 11 11 10 10 9 9 8 8 9 9 9 8
100 100 100 100 100 100 91 74 46 37 70 80 92 88 60 77 77 68 60 31 28 26 28 25 27 22 17 18 19 20 17 14 14 14 12 11 12 12 11 11 11 10 10 9 9 9 9 9 9
57 65 100 100 100 100 100 77 73 61 62 75 83 79 55 82 76 68 66 35 30 30 31 30 31 30 24 24 23 22 21 16 15 14 12 12 14 14 12 11 12 10 10 10 10 10 11 11 10
100 64 82 100 100 100 100 96 93 85 63 72 82 73 72 67 83 73 65 62 32 29 32 27 34 32 33 31 27 26 27 20 16 15 14 14 14 14 13 12 13 12 12 11 12 12 13 12 12
100 100 66 55 100 100 100 100 75 100 89 88 77 77 60 100 100 94 67 62 55 38 35 27 34 35 34 36 30 29 28 26 17 16 16 16 14 14 15 14 14 14 14 14 19 21 16 13 14
82 98 100 94 82 100 100 99 73 100 86 100 99 82 40 64 100 100 71 57 64 60 46 36 29 28 34 43 34 34 31 33 28 20 16 15 15 14 17 16 16 15 16 16 17 26 24 19 18
67 68 75 100 100 100 97 71 91 96 100 97 100 100 72 64 94 100 100 57 62 57 57 45 41 37 36 41 40 36 29 33 37 36 20 16 15 16 16 18 19 19 20 20 18 21 28 28 27
100 56 54 82 87 98 100 90 51 91 94 68 100 100 85 100 82 100 100 76 66 62 56 58 56 52 47 40 51 33 34 31 34 39 29 16 16 17 18 18 19 20 27 32 29 26 27 37 38
64 53 62 58 68 72 90 99 100 89 73 100 71 100 100 100 88 90 92 95 73 64 57 59 64 73 56 50 46 36 36 31 30 31 36 19 17 16 17 18 19 20 22 28 35 36 35 38 47
100 98 73 48 53 55 59 72 99 100 99 69 100 70 77 100 98 94 100 100 94 59 72 51 59 93 81 52 48 50 39 41 34 27 33 32 19 18 17 16 18 22 26 26 29 30 38 42 39
100 100 100 96 50 49 52 49 73 90 100 91 44 92 49 60 91 97 97 100 100 95 64 94 68 58 87 97 53 58 54 47 59 46 32 33 27 22 29 28 18 18 21 28 29 29 28 35 45
83 100 96 99 100 69 38 50 53 64 72 100 100 57 86 56 100 100 98 100 100 100 81 77 100 90 53 82 95 70 70 64 59 63 52 36 37 30 30 33 29 18 18 19 28 34 36 26 32
50 63 72 85 88 100 88 61 39 51 53 66 86 100 93 76 86 92 91 97 100 100 100 78 88 97 66 53 94 99 98 100 76 71 70 48 50 43 33 41 28 38 26 19 19 25 37 35 30
27 30 44 61 64 85 90 89 61 52 53 43 58 74 100 100 73 67 70 77 94 100 100 78 96 91 79 64 61 98 100 100 100 79 78 100 82 79 42 37 48 27 45 26 19 19 24 28 34
17 18 20 22 40 58 53 68 87 96 62 36 41 60 72 100 100 88 54 53 62 87 97 76 63 92 84 80 69 75 92 100 100 100 100 55 87 90 62 42 38 46 34 41 25 23 20 20 23
15 16 17 16 18 26 35 51 57 60 88 50 37 46 50 80 100 100 86 66 74 55 56 78 57 61 78 66 64 81 69 99 100 93 96 97 52 92 95 49 49 58 49 48 43 29 28 24 20
12 13 14 15 17 17 19 30 37 56 43 71 45 40 46 49 87 100 100 98 65 76 75 61 60 54 52 53 56 69 86 100 100 94 73 81 58 51 100 85 63 60 66 44 49 56 35 29 26
9 9 10 11 13 15 13 16 24 81 88 40 45 40 40 38 55 86 100 100 100 88 58 87 93 74 76 82 83 90 96 100 100 91 79 67 60 60 82 100 72 64 67 54 47 56 55 37 31
6 6 6 8 10 10 11 10 10 14 91 71 31 34 42 38 45 51 78 100 100 100 100 69 72 96 100 100 100 100 87 91 99 100 100 85 78 84 55 45 91 85 71 59 60 72 70 56 45
6 6 6 6 7 9 8 8 8 9 9 86 56 29 34 36 32 45 64 59 99 100 98 99 71 63 58 86 98 97 88 71 100 100 100 100 78 65 62 50 37 100 93 58 58 75 70 57 54
8 8 7 7 6 6 8 7 7 8 7 11 100 77 68 64 45 30 52 66 66 93 100 99 100 100 85 68 68 76 81 75 92 100 97 97 86 98 92 62 61 60 100 72 53 92 96 88 53
8 8 8 8 7 6 7 7 8 10 9 9 19 100 79 74 50 54 42 54 58 73 83 100 100 100 100 100 67 56 55 57 57 54 98 100 100 100 100 94 86 66 53 88 55 44 57 94 69
6 6 6 6 7 7 8 7 8 9 9 8 7 22 62 67 64 60 67 58 48 54 75 74 94 100 100 100 100 94 65 70 53 52 65 78 81 96 97 100 82 64 50 42 66 47 46 70 76
6 6 5 6 6 7 8 8 8 7 8 8 8 8 17 37 59 58 66 64 42 41 56 67 80 91 100 100 100 100 100 100 96 73 80 71 68 83 75 92 75 74 74 60 53 77 78 64 60
6 6 5 6 6 6 7 8 8 8 7 7 8 8 8 29 73 76 62 77 61 48 38 50 64 67 77 80 89 100 100 100 100 100 100 98 71 100 98 96 99 94 86 79 63 73 67 67 92
7 6 6 6 6 7 6 7 8 8 7 8 6 7 8 8 70 100 99 72 73 52 37 35 39 48 56 64 66 88 100 100 100 100 100 100 98 78 100 100 100 100 100 95 79 70 65 44 68
7 7 7 7 7 8 7 6 7 6 6 6 7 7 7 9 10 100 100 91 86 76 43 38 35 40 69 44 61 62 73 93 100 100 100 100 100 79 83 100 100 100 100 100 100 92 88 61 68
8 7 7 6 7 7 7 7 5 5 5 5 6 6 7 8 9 11 92 100 94 100 92 51 37 46 49 52 48 64 77 100 100 100 100 100 100 80 74 100 100 89 97 100 98 100 100 87 77
10 8 8 7 7 7 8 8 5 6 5 6 7 7 6 8 9 9 12 100 100 100 100 100 49 46 83 90 44 71 79 85 98 100 100 100 100 95 75 76 100 100 82 80 79 83 98 95 82

GFSSGP_250_rhum_267.txt.gz
RH
100 92 100 90 68 81 77 57 43 48 57 74 70 46 44 57 51 55 42 26 22 20 18 17 15 16 15 13 13 14 13 12 11 10 9 8 8 9 10 9 9 9 8 8 8 8 8 8 8
100 100 100 100 100 100 76 76 57 52 60 71 70 59 40 58 64 59 42 28 25 24 23 24 22 17 16 14 14 14 14 13 12 11 10 9 9 10 10 10 10 9 9 8 8 8 8 8 8
92 87 90 100 100 100 93 78 62 49 68 71 80 79 42 52 82 59 55 42 27 25 28 26 30 25 20 16 15 16 14 13 12 11 10 10 10 10 11 11 10 10 9 9 9 9 9 9 9
100 100 85 100 100 100 99 85 76 67 78 100 80 75 55 43 88 53 57 57 36 25 31 28 32 30 28 21 18 17 16 14 13 12 12 12 12 13 13 12 12 11 11 10 10 12 12 11 10
100 100 96 82 98 100 100 100 80 60 85 74 69 79 67 38 54 62 61 50 60 32 30 25 30 30 29 25 24 21 18 17 14 13 13 13 12 14 14 14 13 12 12 13 15 14 12 12 12
96 98 84 100 100 100 100 76 61 54 90 98 73 78 69 58 52 65 73 48 57 53 33 30 28 32 28 29 25 25 27 21 21 14 14 13 13 14 16 15 15 14 15 14 16 14 14 13 12
98 72 84 97 100 100 100 100 76 45 76 100 100 91 79 76 64 67 100 100 60 52 46 43 39 32 34 30 30 26 30 29 26 21 15 14 14 15 17 18 16 17 18 16 16 17 22 24 20
62 65 76 82 91 98 100 100 94 68 89 100 51 99 97 100 89 50 86 100 77 54 52 46 43 42 43 48 39 34 32 28 24 26 18 15 14 16 17 17 18 18 21 23 22 21 25 31 28
57 55 56 55 69 75 84 83 100 88 67 99 76 32 64 100 100 83 70 97 99 75 44 50 49 47 45 49 54 46 35 33 27 25 24 16 14 14 15 16 17 18 19 21 23 24 23 27 29
53 42 39 45 49 60 87 76 76 87 100 100 97 53 59 95 100 92 74 93 100 78 65 39 48 54 50 53 49 55 37 38 36 28 25 22 18 17 16 14 15 17 18 22 22 24 29 30 27
100 100 98 60 46 47 56 69 70 63 86 100 100 71 51 56 91 100 94 91 100 100 94 55 39 42 57 56 61 52 44 41 48 46 30 26 24 20 20 16 15 14 16 20 23 23 23 26 28
100 100 100 100 89 56 66 54 56 60 55 89 92 100 82 57 100 99 92 100 100 100 96 90 52 43 40 57 94 77 61 48 47 57 52 34 32 31 26 23 20 18 15 15 19 23 26 23 26
98 100 100 100 100 100 84 73 59 50 61 65 75 81 85 100 100 100 89 95 100 100 100 99 93 77 46 48 64 84 93 72 60 61 58 53 38 47 42 34 25 22 19 15 14 15 20 28 28
95 96 100 100 100 100 100 98 73 68 52 50 58 68 78 68 91 100 99 77 86 100 100 100 88 88 62 42 60 81 92 98 95 81 78 66 54 51 70 40 38 28 28 18 17 16 16 19 28
66 72 77 85 86 90 91 85 99 100 79 46 45 68 61 74 73 100 100 86 50 59 99 100 100 94 90 50 44 50 70 100 100 100 98 77 100 82 70 48 36 38 32 30 20 18 17 17 20
44 46 49 39 49 56 76 76 78 78 100 78 48 46 50 48 54 99 100 95 99 62 59 53 90 87 100 97 51 44 47 64 86 100 100 95 85 75 58 63 53 37 48 46 36 26 20 20 26
17 18 24 27 29 33 39 56 63 80 74 71 73 44 37 43 61 71 98 100 94 78 84 33 100 100 100 100 84 48 44 58 73 84 100 100 100 87 63 64 72 69 45 56 47 38 40 22 23
12 12 13 14 16 16 19 24 27 33 48 82 73 88 47 33 40 55 67 95 100 95 97 61 100 100 100 84 87 69 44 52 66 85 83 100 92 76 84 56 88 87 61 48 51 47 49 58 31
12 12 12 11 10 12 14 13 14 19 24 44 60 62 93 86 42 33 44 73 85 99 79 100 82 73 69 59 73 68 57 44 55 64 60 94 88 59 67 61 58 99 91 52 51 46 61 69 48
14 14 10 7 8 8 10 12 12 13 14 19 27 43 50 85 98 69 37 48 72 94 94 74 100 100 100 68 58 77 67 50 45 48 57 74 100 87 80 73 53 48 99 95 78 63 41 74 78
13 8 6 5 5 6 7 8 9 10 11 13 15 18 32 50 62 88 68 38 37 65 88 88 88 100 100 95 72 67 53 49 39 50 89 97 97 100 97 93 71 46 43 97 91 79 48 54 100
8 6 6 6 5 6 5 6 7 8 10 11 12 14 12 23 40 57 83 73 32 36 70 82 72 100 100 100 94 87 91 63 61 100 100 100 77 83 87 82 88 60 54 59 67 86 81 51 82
7 7 7 7 7 6 7 5 8 7 7 7 9 10 9 8 19 36 48 77 57 28 39 65 82 67 98 100 97 77 85 94 96 100 100 100 99 76 90 86 100 96 71 71 60 48 74 69 64
8 8 7 7 7 7 6 6 7 6 6 7 8 8 9 7 8 29 47 48 66 67 34 44 59 84 83 95 100 100 89 67 60 68 84 91 100 100 95 100 92 100 90 96 65 46 44 70 62
8 8 7 5 6 6 5 6 7 8 7 7 6 7 8 8 8 11 43 41 57 53 56 36 42 62 88 82 100 98 100 88 74 62 62 50 86 95 100 100 87 91 95 76 71 55 56 72 82
8 8 6 6 6 6 5 5 6 6 7 6 7 6 6 8 8 9 20 58 58 65 53 48 36 46 62 97 98 83 82 69 78 97 82 54 60 62 70 77 62 59 66 64 52 74 60 72 82
9 9 6 6 6 6 6 5 5 5 4 6 7 7 6 7 8 8 10 30 94 97 72 38 39 32 45 67 96 100 100 72 53 77 99 99 85 74 70 84 75 73 53 62 61 85 89 70 77
9 9 7 8 7 7 6 5 5 6 5 5 6 6 6 5 6 6 8 10 51 97 100 65 31 34 33 48 73 96 88 76 100 79 75 91 99 92 100 100 99 94 75 67 61 73 100 100 90
10 10 8 8 8 9 6 6 6 5 5 6 6 6 6 6 6 7 7 10 10 58 99 100 64 29 30 33 45 55 95 100 89 68 65 64 68 62 66 85 100 100 97 91 70 89 97 100 100
15 10 9 8 7 8 8 7 6 7 5 5 6 6 6 6 6 6 7 8 10 12 87 100 75 24 27 36 35 100 100 96 100 100 99 67 90 86 65 63 79 100 100 100 92 85 83 87 92